Regional Weather Roundup
Issued by NWS

Home | Current Version | Previous Version | Graphics & Text | Print | Product List | Glossary On
Versions: 1 2 3 4 5 6 7 8 9 10 11 12 13 14 15 16 17 18 19 20 21 22 23 24 25 26 27 28 29 30 31 32 33 34 35 36 37 38 39 40 41 42 43 44 45 46 47 48 49 50
000
ASUS45 KABQ 261101
RWRNM
NEW MEXICO REGIONAL WEATHER ROUNDUP
NATIONAL WEATHER SERVICE ALBUQUERQUE NM
500 AM MDT MON JUN 26 2017

NOTE: "FAIR" MEANS FEW OR NO CLOUDS BELOW 12,000 FEET AGL WITH NO
       SIGNIFICANT WEATHER OR OBSTRUCTIONS TO VISION.

      THIS PRODUCT IS RELEASED AS TWO VERSIONS.  ONE VERSION NEAR
      THE TOP OF THE HOUR CONTAINING PRELIMINARY DATA FROM ALBUQUERQUE
      AND OTHER STATIONS.  A FINAL VERSION WITH ADDITIONAL DATA IS
      ISSUED ABOUT 10 MINUTES AFTER THE HOUR.

NMZ501-503-504-510>518-261200-
NORTHWEST PLATEAU/NORTHCENTRAL MOUNTAINS

CITY           SKY/WX    TMP DP  RH WIND       PRES   REMARKS
FARMINGTON     FAIR      66  44  45 E8        30.21R
LOS ALAMOS     FAIR      56  49  78 S10       30.41F
SANTA FE       FAIR      58  52  80 S8        30.36S
TAOS           FAIR      52  41  66 N3        30.42S
ANGEL FIRE     CLOUDY    46  45  95 CALM      30.49F

$$
NMZ402-403-502-505>509-261200-
WESTCENTRAL MOUNTAINS/SOUTHWEST MOUNTAINS

CITY           SKY/WX    TMP DP  RH WIND       PRES   REMARKS
GALLUP         FAIR      57  43  59 NE3       30.29S
GRANTS         FAIR      60  51  71 S10       30.34S
SILVER CITY    FAIR      64  57  80 NE6       30.27F

$$
NMZ407-409-411-412-261200-
SOUTHERN DESERTS

CITY           SKY/WX    TMP DP  RH WIND       PRES   REMARKS
DEMING         FAIR      66  62  87 CALM      30.18F
LAS CRUCES     FAIR      70  57  63 W6        30.21S
HOLLOMAN AFB   FAIR      66  61  85 S10       30.20F
ALAMOGORDO       N/A     64  61  88 S7        30.21F
T OR C         FAIR      67  57  70 N5        30.22S

$$
NMZ519>523-261200-
CENTRAL VALLEYS/CENTRAL HIGHLANDS

CITY           SKY/WX    TMP DP  RH WIND       PRES   REMARKS
ALBUQUERQUE    MOCLDY    65  51  60 SW3       30.29R
DOUBLE EAGLE   FAIR      59  52  76 CALM      30.32S
MORIARTY ARPT  FAIR      52  51  97 CALM      30.39S
CLINES CORNERS FAIR      53  51  93 SE9       30.42S
BELEN          NOT AVBL
SOCORRO        FAIR      64  55  74 SW6       30.25S

$$
NMZ524>526-539-540-261200-
SOUTHCENTRAL MOUNTAINS

CITY           SKY/WX    TMP DP  RH WIND       PRES   REMARKS
RUIDOSO        CLOUDY    54  54 100 CALM      30.42S

$$
NMZ527>531-261200-
NORTHEAST HIGHLANDS/NORTHEAST PLAINS

CITY           SKY/WX    TMP DP  RH WIND       PRES   REMARKS
LAS VEGAS      FAIR      49  48  97 SW5       30.41S
RATON          FAIR      53  51  93 SW8       30.38S
CLAYTON        FAIR      55  55 100 SW7       30.32F

$$
NMZ532>537-261200-
EASTCENTRAL PLAINS

CITY           SKY/WX    TMP DP  RH WIND       PRES   REMARKS
SANTA ROSA     PTSUNNY   57  55  93 CALM      30.33R
TUCUMCARI      FAIR      60  59  96 N5        30.27S
CANNON AFB     FAIR      58  58 100 E3        30.29F
CLOVIS AIRPORT FAIR      57  56  96 E8        30.29F

$$
NMZ028-029-538-261200-
SOUTHEAST PLAINS

CITY           SKY/WX    TMP DP  RH WIND       PRES   REMARKS
ROSWELL        MOCLDY    65  60  84 S3        30.26R
ARTESIA        CLOUDY    68  66  94 SE6       30.26S
CARLSBAD       CLOUDY    66  65  96 NE12      30.23S
HOBBS          FAIR      59  59 100 E12       30.24F


$$




USA.gov is the U.S. government's official web portal to all federal, state and local government web resources and services.